Simultaneous Nadir Overpasses (SNOs) Predictions

Prediction of SNOs between GOES-16 and NPP Satellite Orbit:

Table of predicted SNOs for the next 14.0 days since TLE Epoch: 3/16/2024
Index Date Time (GOES-16) GOES-16 Lat,Lon NPP Lat,Lon Distance(km) Time Diff (sec)
1 03/16/2024 18:39:41 0.05, -75.20 -0.76, -78.80 410.08 80
2 03/17/2024 18:23:38 0.05, -75.21 0.26, -74.28 106.14 80
3 03/19/2024 06:45:27 -0.04, -75.22 0.91, -79.56 493.87 80
4 03/20/2024 06:24:03 -0.04, -75.23 -0.11, -75.03 22.93 80
5 03/22/2024 18:27:17 0.03, -75.25 -0.09, -75.82 64.15 80
6 03/23/2024 18:09:27 0.03, -75.26 0.94, -71.29 453.29 27
7 03/25/2024 06:33:02 -0.02, -75.29 0.28, -76.56 144.86 80
8 03/26/2024 06:11:39 -0.03, -75.31 -0.75, -72.04 372.78 80
9 03/27/2024 18:36:17 0.02, -75.33 -0.40, -77.36 230.11 80
10 03/28/2024 18:17:32 0.03, -75.35 0.57, -72.82 287.86 80
